Location: Banios
(43.0451°N, 0.2335°E)
Time: 13:54:26
(UTC+00:00)

NOSS 3-2 (A) - Pass Details

Date: 25 January 2021
Orbit: 783 x 1425 km, 63.4° (Epoch: 25 February)

Event Time Altitude Azimuth Distance (km) Brightness Sun altitude
Rises 06:26:29 0° 236° (SW) 3,335 5.9 -10.1°
Reaches altitude 10° 06:28:54 10° 243° (WSW) 2,455 5.2 -9.7°
Maximum altitude 06:34:18 45° 316° (NW) 1,223 3.7 -8.7°
Drops below altitude 10° 06:40:32 10° 29° (NNE) 2,819 6.1 -7.7°
Sets 06:43:30 0° 35° (NE) 3,881 6.9 -7.1°
